TimeEST,TemperatureF,Dew PointF,Humidity,Sea Level PressureIn,VisibilityMPH,Wind Direction,Wind SpeedMPH,Gust SpeedMPH,PrecipitationIn,Events,Conditions,WindDirDegrees,DateUTC
12:15 AM,3.2,-2.2,78,30.29,10.0,Calm,Calm,-,N/A,,Clear,0,2013-02-10 05:15:00
12:35 AM,3.2,-2.2,78,30.29,10.0,Calm,Calm,-,N/A,,Clear,0,2013-02-10 05:35:00
12:55 AM,1.4,-7.6,66,30.30,10.0,Calm,Calm,-,N/A,,Clear,0,2013-02-10 05:55:00
1:15 AM,1.4,-0.4,92,30.31,10.0,Calm,Calm,-,N/A,,Clear,0,2013-02-10 06:15:00
1:35 AM,-0.4,-5.8,78,30.32,10.0,Calm,Calm,-,N/A,,Clear,0,2013-02-10 06:35:00
1:55 AM,1.4,1.4,100,30.32,10.0,Calm,Calm,-,N/A,,Clear,0,2013-02-10 06:55:00
2:15 AM,1.4,-5.8,72,30.32,10.0,Calm,Calm,-,N/A,,Clear,0,2013-02-10 07:15:00
2:35 AM,-0.4,-4.0,85,30.32,10.0,Calm,Calm,-,N/A,,Clear,0,2013-02-10 07:35:00
2:55 AM,-0.4,-4.0,85,30.32,10.0,SSE,3.5,-,N/A,,Clear,160,2013-02-10 07:55:00
3:15 AM,-2.2,-7.6,78,30.32,10.0,Calm,Calm,-,N/A,,Clear,0,2013-02-10 08:15:00
3:35 AM,-0.4,-2.2,92,30.32,10.0,Calm,Calm,-,N/A,,Clear,0,2013-02-10 08:35:00
3:55 AM,-2.2,-5.8,85,30.33,10.0,Calm,Calm,-,N/A,,Clear,0,2013-02-10 08:55:00
4:15 AM,-2.2,-7.6,78,30.34,10.0,ESE,3.5,-,N/A,,Clear,110,2013-02-10 09:15:00
4:35 AM,-2.2,-4.0,92,30.34,10.0,Calm,Calm,-,N/A,,Clear,0,2013-02-10 09:35:00
4:55 AM,-4.0,-7.6,85,30.34,10.0,SE,3.5,-,N/A,,Clear,130,2013-02-10 09:55:00
5:15 AM,-4.0,-5.8,92,30.35,10.0,ESE,3.5,-,N/A,,Clear,120,2013-02-10 10:15:00
5:35 AM,-2.2,-5.8,85,30.35,10.0,SE,4.6,-,N/A,,Clear,130,2013-02-10 10:35:00
5:55 AM,-4.0,-7.6,85,30.36,10.0,Calm,Calm,-,N/A,,Clear,0,2013-02-10 10:55:00
6:15 AM,-4.0,-7.6,85,30.36,10.0,Calm,Calm,-,N/A,,Clear,0,2013-02-10 11:15:00
6:35 AM,-5.8,-7.6,92,30.37,10.0,Calm,Calm,-,N/A,,Clear,0,2013-02-10 11:35:00
6:55 AM,-5.8,-5.8,100,30.37,10.0,ESE,4.6,-,N/A,,Clear,120,2013-02-10 11:55:00
7:15 AM,-5.8,-7.6,92,30.39,10.0,Calm,Calm,-,N/A,,Clear,0,2013-02-10 12:15:00
7:35 AM,-4.0,-4.0,100,30.40,10.0,ESE,4.6,-,N/A,,Clear,120,2013-02-10 12:35:00
7:55 AM,-4.0,-9.4,78,30.41,10.0,Calm,Calm,-,N/A,,Clear,0,2013-02-10 12:55:00
8:15 AM,-0.4,-0.4,100,30.42,10.0,Calm,Calm,-,N/A,,Clear,0,2013-02-10 13:15:00
8:35 AM,-0.4,-2.2,92,30.43,10.0,Calm,Calm,-,N/A,,Clear,0,2013-02-10 13:35:00
8:55 AM,3.2,1.4,92,30.44,10.0,Calm,Calm,-,N/A,,Clear,0,2013-02-10 13:55:00
9:35 AM,6.8,-2.2,67,30.45,10.0,Calm,Calm,-,N/A,,Clear,0,2013-02-10 14:35:00
9:55 AM,8.6,-0.4,67,30.44,10.0,Calm,Calm,-,N/A,,Clear,0,2013-02-10 14:55:00
10:15 AM,10.4,1.4,67,30.45,10.0,Calm,Calm,-,N/A,,Clear,0,2013-02-10 15:15:00
10:35 AM,10.4,1.4,67,30.45,10.0,Calm,Calm,-,N/A,,Clear,0,2013-02-10 15:35:00
10:55 AM,15.8,3.2,58,30.45,10.0,Calm,Calm,-,N/A,,Clear,0,2013-02-10 15:55:00
11:15 AM,17.6,3.2,53,30.45,10.0,Calm,Calm,-,N/A,,Clear,0,2013-02-10 16:15:00
11:35 AM,17.6,3.2,53,30.44,10.0,Calm,Calm,-,N/A,,Clear,0,2013-02-10 16:35:00
11:55 AM,17.6,-2.2,42,30.43,10.0,NNE,3.5,-,N/A,,Clear,20,2013-02-10 16:55:00
12:15 PM,17.6,-0.4,45,30.41,10.0,North,4.6,-,N/A,,Clear,10,2013-02-10 17:15:00
12:35 PM,19.4,-0.4,42,30.41,10.0,North,5.8,-,N/A,,Clear,10,2013-02-10 17:35:00
1:15 PM,19.4,1.4,46,30.38,10.0,North,3.5,-,N/A,,Clear,350,2013-02-10 18:15:00
1:35 PM,24.8,1.4,36,30.37,10.0,Calm,Calm,-,N/A,,Clear,0,2013-02-10 18:35:00
1:55 PM,21.2,1.4,42,30.36,10.0,NE,3.5,-,N/A,,Clear,50,2013-02-10 18:55:00
2:15 PM,26.6,3.2,37,30.36,10.0,Calm,Calm,-,N/A,,Clear,0,2013-02-10 19:15:00
2:35 PM,23.0,1.4,39,30.35,10.0,Calm,Calm,-,N/A,,Clear,0,2013-02-10 19:35:00
2:55 PM,24.8,1.4,36,30.36,10.0,Calm,Calm,-,N/A,,Clear,0,2013-02-10 19:55:00
3:15 PM,24.8,3.2,40,30.36,10.0,NNE,4.6,-,N/A,,Clear,30,2013-02-10 20:15:00
3:35 PM,24.8,1.4,36,30.37,10.0,Calm,Calm,-,N/A,,Clear,0,2013-02-10 20:35:00
3:55 PM,26.6,1.4,34,30.35,10.0,NW,4.6,-,N/A,,Clear,310,2013-02-10 20:55:00
4:15 PM,26.6,-0.4,31,30.34,10.0,NNW,3.5,-,N/A,,Clear,330,2013-02-10 21:15:00
4:35 PM,26.6,-0.4,31,30.34,10.0,NW,3.5,-,N/A,,Clear,310,2013-02-10 21:35:00
4:55 PM,24.8,1.4,36,30.33,10.0,Calm,Calm,-,N/A,,Clear,0,2013-02-10 21:55:00
5:15 PM,24.8,1.4,36,30.33,10.0,Calm,Calm,-,N/A,,Clear,0,2013-02-10 22:15:00
5:35 PM,23.0,1.4,39,30.32,10.0,Calm,Calm,-,N/A,,Clear,0,2013-02-10 22:35:00
5:55 PM,21.2,6.8,54,30.32,10.0,Calm,Calm,-,N/A,,Clear,0,2013-02-10 22:55:00
6:15 PM,19.4,6.8,58,30.33,10.0,SE,4.6,-,N/A,,Clear,140,2013-02-10 23:15:00
6:35 PM,19.4,6.8,58,30.34,10.0,SE,6.9,-,N/A,,Clear,130,2013-02-10 23:35:00
6:55 PM,19.4,6.8,58,30.32,10.0,ESE,5.8,-,N/A,,Clear,120,2013-02-10 23:55:00
7:15 PM,17.6,3.2,53,30.32,10.0,ESE,6.9,-,N/A,,Clear,120,2013-02-11 00:15:00
7:35 PM,17.6,6.8,63,30.32,10.0,SE,5.8,-,N/A,,Clear,130,2013-02-11 00:35:00
7:55 PM,17.6,5.0,58,30.31,10.0,SE,8.1,-,N/A,,Clear,130,2013-02-11 00:55:00
8:15 PM,17.6,6.8,63,30.30,10.0,ESE,10.4,-,N/A,,Clear,120,2013-02-11 01:15:00
8:35 PM,17.6,5.0,58,30.30,10.0,SE,11.5,-,N/A,,Clear,130,2013-02-11 01:35:00
8:55 PM,15.8,6.8,68,30.30,10.0,SE,8.1,-,N/A,,Clear,130,2013-02-11 01:55:00
9:15 PM,15.8,6.8,68,30.29,10.0,SE,11.5,-,N/A,,Clear,130,2013-02-11 02:15:00
9:35 PM,14.0,3.2,62,30.29,10.0,SE,10.4,-,N/A,,Clear,130,2013-02-11 02:35:00
9:55 PM,15.8,5.0,62,30.28,10.0,SE,10.4,-,N/A,,Clear,130,2013-02-11 02:55:00
10:15 PM,14.0,3.2,62,30.28,10.0,SE,10.4,-,N/A,,Clear,130,2013-02-11 03:15:00
10:35 PM,15.8,3.2,58,30.27,10.0,SE,15.0,-,N/A,,Clear,130,2013-02-11 03:35:00
10:55 PM,12.2,3.2,67,30.27,10.0,SE,8.1,-,N/A,,Clear,130,2013-02-11 03:55:00
11:15 PM,12.2,5.0,73,30.26,10.0,ESE,10.4,-,N/A,,Mostly Cloudy,110,2013-02-11 04:15:00
11:35 PM,15.8,5.0,62,30.25,10.0,SE,9.2,-,N/A,,Overcast,130,2013-02-11 04:35:00
11:55 PM,15.8,6.8,68,30.24,10.0,SSE,5.8,-,N/A,,Overcast,150,2013-02-11 04:55:00